This is the latest recevied weather packets stored in our database for station/object W7TTE. If no packets are shown the sender has not sent any weather packets the latest 10 day(s).
| Time | Temp. | Humidity | Pressure | Rain* | Wind** | Luminosity | Snow |
|---|---|---|---|---|---|---|---|
| 1777345430 | 22.78° C | 25% | 1014.3 hPa | 0 mm | - | 0 W/m² | - |
| 1777345127 | 22.78° C | 25% | 1014.3 hPa | 0 mm | - | 0 W/m² | - |
| 1777344823 | 22.78° C | 24% | 1014.1 hPa | 0 mm | - | 0 W/m² | - |
| 1777344519 | 22.78° C | 24% | 1013.9 hPa | 0 mm | - | 0 W/m² | - |
| 1777344217 | 22.78° C | 24% | 1014 hPa | 0 mm | - | 0 W/m² | - |
| 1777343914 | 23.33° C | 23% | 1013.8 hPa | 0 mm | - | 0 W/m² | - |
| 1777343612 | 23.33° C | 23% | 1013.7 hPa | 0 mm | - | 0 W/m² | - |
| 1777343309 | 23.33° C | 23% | 1013.8 hPa | 0 mm | - | 0 W/m² | - |
| 1777343007 | 23.89° C | 22% | 1013.5 hPa | 0 mm | - | 0 W/m² | - |
| 1777342704 | 23.89° C | 22% | 1013.6 hPa | 0 mm | - | 1 W/m² | - |
| 1777342400 | 23.89° C | 22% | 1013.7 hPa | 0 mm | - | 2 W/m² | - |
| 1777342097 | 23.89° C | 23% | 1013.5 hPa | 0 mm | - | 4 W/m² | - |
| 1777341793 | 24.44° C | 22% | 1013.4 hPa | 0 mm | - | 7 W/m² | - |
| 1777341489 | 24.44° C | 22% | 1013.5 hPa | 0 mm | - | 10 W/m² | - |
| 1777341186 | 24.44° C | 22% | 1013.3 hPa | 0 mm | - | 13 W/m² | - |
| 1777340883 | 24.44° C | 22% | 1013.4 hPa | 0 mm | - | 17 W/m² | - |
| 1777340581 | 25° C | 22% | 1013.1 hPa | 0 mm | - | 20 W/m² | - |
| 1777340278 | 25° C | 21% | 1013.3 hPa | 0 mm | - | 22 W/m² | - |
| 1777339975 | 25.56° C | 21% | 1013.1 hPa | 0 mm | - | 25 W/m² | - |
| 1777339673 | 25.56° C | 21% | 1012.9 hPa | 0 mm | - | 29 W/m² | - |
| 1777339370 | 26.11° C | 21% | 1013.3 hPa | 0 mm | - | 36 W/m² | - |
| 1777339068 | 26.11° C | 21% | 1013.1 hPa | 0 mm | - | 42 W/m² | - |
| 1777338765 | 26.11° C | 21% | 1013.1 hPa | 0 mm | - | 44 W/m² | - |
| 1777338462 | 26.11° C | 21% | 1013.1 hPa | 0 mm | - | 51 W/m² | - |
| 1777338159 | 26.11° C | 21% | 1013.3 hPa | 0 mm | - | 55 W/m² | - |
* Rain latest hour (hover to see other rain measurements)
** Current wind speed in m/s (hover to see current wind gust speed)